Camden, NC

1:36 PM EST on February 12, 2016 (GMT -0500)
Elizabeth City Cgas-Regional

Weather History for KECG - October, 2011

Change the Weather History Date:

Thursday, October 6, 2011

  Actual Average Record
Temperature  
Mean Temperature 62 °F 66 °F  
Max Temperature 74 °F 75 °F 95 °F (1954)
Min Temperature 49 °F 56 °F 37 °F (1987)
Degree Days  
Heating Degree Days 3 2  
Month to date heating degree days 35 12  
Since 1 July heating degree days 38 24  
Cooling Degree Days 0 3  
Month to date cooling degree days 0 21  
Year to date cooling degree days 1912 1543  
Growing Degree Days 12 (Base 50)    
Moisture  
Dew Point 53 °F    
Average Humidity 75    
Maximum Humidity 100    
Minimum Humidity 49    
Precipitation  
Precipitation 0.00 in 0.10 in 2.58 in (1957)
Month to date precipitation 0.00 0.67  
Year to date precipitation 29.69 38.56  
Snow  
Snow 0.00 in - 0.00 in (2002)
Month to date snowfall 0.0  
Since 1 July snowfall 0.0  
Snow Depth 0.00 in    
Sea Level Pressure  
Sea Level Pressure 30.31 in    
Wind  
Wind Speed 8 mph (NNE)    
Max Wind Speed 16 mph    
Max Gust Speed 20 mph    
Visibility 10 miles    
Events      
T = Trace of Precipitation, MM = Missing Value Source: NWS Daily Summary

Daily Weather History Graph

Daily Weather History Graph

Search for Another Location

Airport or City:

Trip Planner

Search our weather history database for the weather conditions in past years. The results will help you decide how hot, cold, wet, or windy it might be!

Date:

Astronomy

Oct. 06, 2011 Rise Set
Actual Time 7:03 AM EDT 6:41 PM EDT
Civil Twilight 6:37 AM EDT 7:07 PM EDT
Nautical Twilight 6:08 AM EDT 7:36 PM EDT
Astronomical Twilight 5:38 AM EDT 8:06 PM EDT
Moon 3:46 PM EDT (10/6) 1:58 AM EDT (10/6)
Length of Visible Light 12h 29m
Length of Day
11h 37m
Waxing Gibbous, 75% of the Moon is Illuminated
Oct 6
Waxing Gibbous
Oct 11
Full
Oct 19
Last Quarter
Oct 26
New
Nov 2
First Quarter

Hourly Weather History & Observations

Time (EDT) Temp. Dew Point Humidity Pressure Visibility Wind Dir Wind Speed Gust Speed Precip Events Conditions
12:54 AM 52.0 °F 51.1 °F 97% 30.23 in 9.0 mi Calm Calm - N/A   Clear
1:54 AM 55.0 °F 52.0 °F 89% 30.24 in 10.0 mi WNW 3.5 mph - N/A   Clear
2:54 AM 60.1 °F 55.0 °F 83% 30.23 in 10.0 mi NNW 8.1 mph - N/A   Clear
3:54 AM 60.1 °F 55.0 °F 83% 30.23 in 10.0 mi North 8.1 mph - N/A   Clear
4:54 AM 60.1 °F 55.0 °F 83% 30.24 in 10.0 mi North 8.1 mph - N/A   Clear
5:54 AM 60.1 °F 55.0 °F 83% 30.25 in 10.0 mi North 5.8 mph - N/A   Clear
6:54 AM 60.1 °F 55.9 °F 86% 30.27 in 10.0 mi NNE 5.8 mph - N/A   Clear
7:54 AM 61.0 °F 57.0 °F 87% 30.28 in 10.0 mi NNW 8.1 mph - N/A   Clear
8:54 AM 64.9 °F 57.9 °F 78% 30.30 in 10.0 mi North 8.1 mph - N/A   Clear
9:54 AM 69.1 °F 60.1 °F 73% 30.31 in 10.0 mi North 8.1 mph - N/A   Clear
10:54 AM 70.0 °F 57.0 °F 63% 30.32 in 10.0 mi NE 13.8 mph - N/A   Partly Cloudy
11:54 AM 73.0 °F 55.9 °F 55% 30.33 in 10.0 mi ENE 11.5 mph - N/A   Mostly Cloudy
12:54 PM 70.0 °F 53.1 °F 55% 30.33 in 10.0 mi NE 13.8 mph - N/A   Mostly Cloudy
1:54 PM 71.1 °F 52.0 °F 51% 30.32 in 10.0 mi NE 12.7 mph - N/A   Partly Cloudy
2:54 PM 69.1 °F 52.0 °F 54% 30.32 in 10.0 mi NNE 15.0 mph - N/A   Scattered Clouds
3:54 PM 69.8 °F 51.8 °F 53% 30.32 in 10.0 mi NE 12.7 mph - N/A   Partly Cloudy
4:54 PM 68.0 °F 50.0 °F 52% 30.32 in 10.0 mi NE 12.7 mph 18.4 mph N/A   Clear
5:54 PM 66.2 °F 50.0 °F 56% 30.33 in 10.0 mi NE 11.5 mph - N/A   Clear
6:54 PM 62.6 °F 48.2 °F 59% 30.34 in 10.0 mi NE 9.2 mph - N/A   Clear
7:54 PM 60.1 °F 48.9 °F 67% 30.35 in 10.0 mi NE 9.2 mph - N/A   Clear
8:54 PM 59.0 °F 48.9 °F 69% 30.35 in 10.0 mi NE 8.1 mph - N/A   Clear
9:54 PM 57.9 °F 48.9 °F 72% 30.37 in 10.0 mi NNE 5.8 mph - N/A   Clear
10:54 PM 53.1 °F 48.0 °F 83% 30.37 in 10.0 mi Calm Calm - N/A   Clear
11:54 PM 52.0 °F 48.9 °F 89% 30.38 in 10.0 mi Calm Calm - N/A   Clear